Weather History for Grand Rapids, MN

Change the Weather History Date:

Sunday, May 26, 2013

  Actual Average Record
Temperature  
Mean Temperature 56 °F -  
Max Temperature 69 °F 69 °F 89 °F (1934)
Min Temperature 42 °F 44 °F 27 °F (1961)
Degree Days  
Heating Degree Days 10    
Growing Degree Days 6 (Base 50)    
Moisture  
Dew Point 32 °F    
Average Humidity 42    
Maximum Humidity 61    
Minimum Humidity 24    
Precipitation  
Precipitation 0.00 in - - ()
Sea Level Pressure  
Sea Level Pressure 30.22 in    
Wind  
Wind Speed 8 mph (SE)    
Max Wind Speed 23 mph    
Max Gust Speed 31 mph    
Visibility 10 miles    
Events      
Averages and records for this station are not official NWS values.
T = Trace of Precipitation, MM = Missing Value Source: NWS Daily Summary

Daily Weather History Graph

Daily Weather History Graph

Search for Another Location

Airport:

Trip Planner

Search our weather history database for the weather conditions in past years. The results will help you decide how hot, cold, wet, or windy it might be!

Date:

Astronomy

May. 26, 2013 Rise Set
Actual Time 5:26 AM CDT 8:56 PM CDT
Civil Twilight 4:48 AM CDT 9:34 PM CDT
Nautical Twilight 3:57 AM CDT 10:25 PM CDT
Astronomical Twilight 2:51 AM CDT 11:33 PM CDT
Moon 10:42 PM CDT (5/26) 6:57 AM CDT (5/26)
Length of Visible Light 16h 46m
Length of Day
15h 30m
Waning Gibbous, 96% of the Moon is Illuminated
May 26
Waning Gibbous
May 31
Last Quarter
Jun 8
New
Jun 16
First Quarter
Jun 23
Full

Hourly Weather History & Observations

Time (CDT) Temp. Windchill Dew Point Humidity Pressure Visibility Wind Dir Wind Speed Gust Speed Precip Events Conditions
12:15 AM 48.2 °F - 33.8 °F 58% 30.27 in 10.0 mi ESE 4.6 mph - N/A   Clear
12:35 AM 48.2 °F - 32.0 °F 54% 30.27 in 10.0 mi ESE 6.9 mph - N/A   Clear
12:55 AM 48.2 °F - 32.0 °F 54% 30.27 in 10.0 mi ESE 4.6 mph - N/A   Clear
1:15 AM 46.4 °F 43.5 °F 30.2 °F 53% 30.27 in 10.0 mi SE 5.8 mph - N/A   Clear
1:35 AM 46.4 °F 42.9 °F 30.2 °F 53% 30.26 in 10.0 mi ESE 6.9 mph - N/A   Clear
1:55 AM 46.4 °F 43.5 °F 30.2 °F 53% 30.27 in 10.0 mi ESE 5.8 mph - N/A   Clear
2:15 AM 46.4 °F 44.3 °F 30.2 °F 53% 30.26 in 10.0 mi ESE 4.6 mph - N/A   Clear
2:35 AM 44.6 °F 43.1 °F 30.2 °F 57% 30.27 in 10.0 mi ESE 3.5 mph - N/A   Clear
2:55 AM 44.6 °F 43.1 °F 30.2 °F 57% 30.27 in 10.0 mi SE 3.5 mph - N/A   Clear
3:15 AM 44.6 °F 43.1 °F 30.2 °F 57% 30.26 in 10.0 mi East 3.5 mph - N/A   Clear
3:35 AM 44.6 °F 42.2 °F 28.4 °F 53% 30.26 in 10.0 mi ESE 4.6 mph - N/A   Clear
3:55 AM 42.8 °F 40.1 °F 30.2 °F 61% 30.25 in 10.0 mi ESE 4.6 mph - N/A   Clear
4:15 AM 42.8 °F 40.1 °F 28.4 °F 57% 30.24 in 10.0 mi East 4.6 mph - N/A   Clear
4:35 AM 42.8 °F 39.3 °F 28.4 °F 57% 30.27 in 10.0 mi SE 5.8 mph - N/A   Scattered Clouds
4:55 AM 42.8 °F - 28.4 °F 57% 30.27 in 10.0 mi Calm Calm - N/A   Overcast
5:15 AM 42.8 °F - 28.4 °F 57% 30.29 in 10.0 mi Calm Calm - N/A   Overcast
5:35 AM 42.8 °F 41.1 °F 30.2 °F 61% 30.30 in 10.0 mi ESE 3.5 mph - N/A   Overcast
5:55 AM 42.8 °F 40.1 °F 30.2 °F 61% 30.29 in 10.0 mi ESE 4.6 mph - N/A   Overcast
6:15 AM 42.8 °F 40.1 °F 30.2 °F 61% 30.29 in 10.0 mi ESE 4.6 mph - N/A   Overcast
6:35 AM 44.6 °F 41.4 °F 30.2 °F 57% 30.28 in 10.0 mi East 5.8 mph - N/A   Scattered Clouds
6:55 AM 44.6 °F 40.2 °F 30.2 °F 57% 30.27 in 10.0 mi East 8.1 mph - N/A   Mostly Cloudy
7:15 AM 44.6 °F 40.7 °F 30.2 °F 57% 30.27 in 10.0 mi ESE 6.9 mph - N/A   Scattered Clouds
7:35 AM 46.4 °F 43.5 °F 32.0 °F 57% 30.28 in 10.0 mi SE 5.8 mph - N/A   Clear
7:55 AM 48.2 °F - 32.0 °F 54% 30.28 in 10.0 mi ESE 6.9 mph - N/A   Clear
8:15 AM 51.8 °F - 33.8 °F 50% 30.28 in 10.0 mi ESE 6.9 mph - N/A   Clear
8:35 AM 51.8 °F - 33.8 °F 50% 30.27 in 10.0 mi SE 9.2 mph - N/A   Clear
8:55 AM 53.6 °F - 33.8 °F 47% 30.27 in 10.0 mi ESE 10.4 mph - N/A   Clear
9:15 AM 53.6 °F - 35.6 °F 51% 30.26 in 10.0 mi SSE 10.4 mph 18.4 mph N/A   Clear
9:35 AM 55.4 °F - 35.6 °F 47% 30.26 in 10.0 mi SE 15.0 mph 19.6 mph N/A   Clear
9:55 AM 57.2 °F - 35.6 °F 44% 30.25 in 10.0 mi SE 12.7 mph 20.7 mph N/A   Clear
10:15 AM 57.2 °F - 33.8 °F 41% 30.24 in 10.0 mi SSE 17.3 mph 26.5 mph N/A   Clear
10:35 AM 59.0 °F - 33.8 °F 39% 30.24 in 10.0 mi SSE 13.8 mph 21.9 mph N/A   Clear
10:55 AM 60.8 °F - 33.8 °F 36% 30.24 in 10.0 mi SE 12.7 mph 20.7 mph N/A   Clear
11:15 AM 60.8 °F - 33.8 °F 36% 30.24 in 10.0 mi SSE 13.8 mph 19.6 mph N/A   Clear
11:35 AM 62.6 °F - 32.0 °F 32% 30.25 in 10.0 mi SE 17.3 mph 25.3 mph N/A   Clear
11:55 AM 64.4 °F - 35.6 °F 34% 30.23 in 10.0 mi SSE 23.0 mph 31.1 mph N/A   Clear
12:15 PM 64.4 °F - 33.8 °F 32% 30.22 in 10.0 mi SE 13.8 mph 25.3 mph N/A   Clear
12:35 PM 64.4 °F - 33.8 °F 32% 30.22 in 10.0 mi SE 13.8 mph 23.0 mph N/A   Clear
12:55 PM 64.4 °F - 33.8 °F 32% 30.22 in 10.0 mi SSE 18.4 mph 31.1 mph N/A   Clear
1:15 PM 66.2 °F - 33.8 °F 30% 30.20 in 10.0 mi SSE 21.9 mph 28.8 mph N/A   Clear
1:35 PM 66.2 °F - 33.8 °F 30% 30.19 in 10.0 mi SSE 23.0 mph 28.8 mph N/A   Clear
1:55 PM 66.2 °F - 33.8 °F 30% 30.18 in 10.0 mi ESE 13.8 mph 25.3 mph N/A   Clear
2:15 PM 66.2 °F - 32.0 °F 28% 30.18 in 10.0 mi SSE 13.8 mph 23.0 mph N/A   Clear
2:35 PM 66.2 °F - 33.8 °F 30% 30.18 in 10.0 mi ESE 13.8 mph 17.3 mph N/A   Clear
3:15 PM 68.0 °F - 32.0 °F 26% 30.16 in 10.0 mi East 13.8 mph 21.9 mph N/A   Clear
3:35 PM 68.0 °F - 32.0 °F 26% 30.16 in 10.0 mi SE 8.1 mph 25.3 mph N/A   Clear
3:55 PM 68.0 °F - 30.2 °F 24% 30.16 in 10.0 mi SSE 15.0 mph 27.6 mph N/A   Clear
4:15 PM 68.0 °F - 32.0 °F 26% 30.15 in 10.0 mi SE 12.7 mph 20.7 mph N/A   Clear
4:35 PM 69.8 °F - 33.8 °F 27% 30.15 in 10.0 mi ESE 12.7 mph 18.4 mph N/A   Clear
4:55 PM 68.0 °F - 32.0 °F 26% 30.14 in 10.0 mi SE 16.1 mph 23.0 mph N/A   Clear
5:15 PM 66.2 °F - 32.0 °F 28% 30.14 in 10.0 mi SE 12.7 mph 23.0 mph N/A   Clear
5:35 PM 66.2 °F - 30.2 °F 26% 30.14 in 10.0 mi SE 10.4 mph 19.6 mph N/A   Clear
5:55 PM 68.0 °F - 30.2 °F 24% 30.15 in 10.0 mi SE 13.8 mph 23.0 mph N/A   Clear
6:15 PM 66.2 °F - 30.2 °F 26% 30.14 in 10.0 mi SE 15.0 mph 26.5 mph N/A   Clear
6:35 PM 68.0 °F - 30.2 °F 24% 30.15 in 10.0 mi SE 12.7 mph 20.7 mph N/A   Mostly Cloudy
6:55 PM 66.2 °F - 30.2 °F 26% 30.14 in 10.0 mi SE 13.8 mph 21.9 mph N/A   Overcast
7:15 PM 64.4 °F - 30.2 °F 28% 30.14 in 10.0 mi SE 10.4 mph 17.3 mph N/A   Scattered Clouds
7:55 PM 62.6 °F - 32.0 °F 32% 30.15 in 10.0 mi SE 10.4 mph - N/A   Scattered Clouds
8:15 PM 62.6 °F - 33.8 °F 34% 30.15 in 10.0 mi SE 8.1 mph - N/A   Mostly Cloudy
8:35 PM 62.6 °F - 33.8 °F 34% 30.15 in 10.0 mi SE 9.2 mph - N/A   Mostly Cloudy
8:55 PM 60.8 °F - 35.6 °F 39% 30.16 in 10.0 mi SE 8.1 mph - N/A   Mostly Cloudy
9:15 PM 60.8 °F - 33.8 °F 36% 30.17 in 10.0 mi ESE 8.1 mph 17.3 mph N/A   Mostly Cloudy
9:35 PM 59.0 °F - 33.8 °F 39% 30.17 in 10.0 mi SE 6.9 mph - N/A   Overcast
9:55 PM 57.2 °F - 33.8 °F 41% 30.17 in 10.0 mi ESE 9.2 mph - N/A   Overcast
10:15 PM 57.2 °F - 30.2 °F 36% 30.17 in 10.0 mi ESE 9.2 mph - N/A   Overcast
10:35 PM 55.4 °F - 30.2 °F 38% 30.16 in 10.0 mi ESE 6.9 mph - N/A   Overcast
10:55 PM 55.4 °F - 28.4 °F 36% 30.16 in 10.0 mi ESE 5.8 mph - N/A   Overcast
11:15 PM 55.4 °F - 28.4 °F 36% 30.15 in 10.0 mi SE 3.5 mph - N/A   Overcast
11:35 PM 55.4 °F - 28.4 °F 36% 30.15 in 10.0 mi SE 6.9 mph - N/A   Overcast
11:55 PM 53.6 °F - 28.4 °F 38% 30.14 in 10.0 mi ESE 8.1 mph - N/A   Overcast